Content
SEND FEEDBACK

Daily
Averages
Monthly
Summary
United States of America

GRASS VALLEY, CALIFORNIA


Home > North America > United States > California
Elevation: 2628 feet     Latitude: 39 16N     Longitude: 121 02W

WEATHER
 
SELECT A DAY
Number of Records: 60,934;   Date Range: 9/21/11 - 8/19/14
 
SHARE

PRINT THIS DATA

[ ← Previous Day ]
WEATHER ALMANAC - JANUARY 24, 2013
[ Next Day → ]
[ °C ]   °F
Weather ElementAverageHighLow
Temperature49.6 °F53.6 °F (11:35 am)46.4 °F (12:35 am)
Dewpoint44.8 °F48.2 °F (2:55 pm)39.2 °F (1:15 am)
Humidity84.2 %100 % (7:15 pm)66 % (6:15 am)
Barometer30.16 in30.21 in (11:35 pm)30.09 in (2:15 am)
Wind Speed2 mph8.1 mph (1:35 am)
Weather ElementAverage
Visibility8 mi
Wind DirectionNE (41 °)

Weather ElementTotal
Precipitation---
Heating Degree Days15 (Base 65)
Averaged from 67 records on January 24, 2013
WEATHER CONDITIONS BREAKOUT
WIND DIRECTION BREAKOUT
WEATHER BY HOUR - JANUARY 24, 2013
[ °C ]   °F
Local TimeTemperatureDewpointHumidityBarometerVisibilityWind DirectionWind SpeedGust SpeedPrecipitationEventsConditions
12:35 AM46.4 °F41.0 °F81 %30.11 in10.0 miEast (80°)5.8 mphOvercast
12:55 AM46.4 °F41.0 °F81 %30.11 in10.0 miCalmOvercast
1:15 AM48.2 °F39.2 °F71 %30.10 in10.0 miEast (90°)5.8 mphOvercast
1:35 AM48.2 °F39.2 °F71 %30.10 in10.0 miEast (100°)8.1 mphOvercast
1:55 AM50.0 °F41.0 °F71 %30.10 in10.0 miESE (110°)6.9 mphOvercast
2:15 AM50.0 °F41.0 °F71 %30.09 in10.0 miESE (110°)8.1 mphOvercast
2:35 AM50.0 °F41.0 °F71 %30.10 in10.0 miESE (120°)6.9 mphOvercast
2:55 AM50.0 °F41.0 °F71 %30.11 in10.0 miESE (110°)4.6 mphOvercast
3:15 AM50.0 °F41.0 °F71 %30.11 in10.0 miESE (120°)5.8 mphOvercast
3:35 AM50.0 °F41.0 °F71 %30.10 in10.0 miESE (120°)4.6 mphOvercast
3:55 AM50.0 °F41.0 °F71 %30.10 in10.0 miCalmOvercast
4:15 AM50.0 °F41.0 °F71 %30.10 in10.0 miSE (130°)4.6 mphOvercast
4:35 AM50.0 °F41.0 °F71 %30.10 in10.0 miSE (130°)3.5 mphOvercast
4:55 AM50.0 °F41.0 °F71 %30.10 in10.0 miCalmOvercast
5:15 AM50.0 °F41.0 °F71 %30.11 in10.0 miSE (130°)4.6 mphOvercast
5:55 AM50.0 °F41.0 °F71 %30.12 in10.0 miSE (140°)3.5 mphOvercast
6:15 AM50.0 °F39.2 °F66 %30.12 in10.0 miCalmOvercast
6:35 AM50.0 °F39.2 °F66 %30.13 in10.0 miCalmOvercast
6:55 AM50.0 °F39.2 °F66 %30.13 in10.0 miCalmOvercast
7:15 AM50.0 °F41.0 °F71 %30.14 in10.0 miCalmOvercast
7:35 AM50.0 °F39.2 °F66 %30.14 in10.0 miCalmOvercast
7:55 AM50.0 °F41.0 °F71 %30.15 in5.0 miCalmOvercast
8:15 AM48.2 °F42.8 °F82 %30.15 in7.0 miESE (110°)4.6 mphOvercast
8:35 AM48.2 °F44.6 °F87 %30.16 in9.0 miEast (100°)5.8 mphOvercast
8:55 AM48.2 °F44.6 °F87 %30.16 in10.0 miEast (80°)5.8 mphOvercast
9:15 AM48.2 °F44.6 °F87 %30.17 in10.0 miEast (90°)6.9 mphOvercast
9:35 AM48.2 °F44.6 °F87 %30.18 in10.0 miEast (90°)5.8 mphOvercast
9:55 AM48.2 °F44.6 °F87 %30.18 in10.0 miEast (90°)8.1 mphOvercast
10:15 AM50.0 °F44.6 °F82 %30.19 in9.0 miEast (90°)5.8 mphOvercast
10:35 AM50.0 °F46.4 °F87 %30.19 in5.0 miEast (80°)6.9 mphOvercast
10:55 AM50.0 °F44.6 °F82 %30.19 in9.0 miEast (90°)3.5 mphOvercast
11:15 AM51.8 °F46.4 °F82 %30.18 in10.0 miCalmMostly Cloudy
11:35 AM53.6 °F44.6 °F72 %30.18 in10.0 miEast (80°)4.6 mphMostly Cloudy
11:55 AM53.6 °F44.6 °F72 %30.18 in10.0 miCalmMostly Cloudy
12:15 PM53.6 °F44.6 °F72 %30.17 in10.0 miCalmMostly Cloudy
12:25 PM51.8 °F44.6 °F76 %30.17 in10.0 miCalmOvercast
1:15 PM51.8 °F44.6 °F76 %30.17 in10.0 miCalmOvercast
1:35 PM51.8 °F44.6 °F76 %30.17 in10.0 miCalmOvercast
1:55 PM51.8 °F44.6 °F76 %30.17 in9.0 miCalmOvercast
2:15 PM50.0 °F46.4 °F87 %30.17 in5.0 miCalmOvercast
2:55 PM50.0 °F48.2 °F94 %30.17 in2.0 miCalmOvercast
3:15 PM50.0 °F48.2 °F94 %30.17 in3.0 miCalmOvercast
3:35 PM50.0 °F48.2 °F94 %30.16 in10.0 miCalmOvercast
3:55 PM50.0 °F48.2 °F94 %30.16 in10.0 miCalmOvercast
4:15 PM50.0 °F48.2 °F94 %30.16 in9.0 miCalmOvercast
4:35 PM50.0 °F48.2 °F94 %30.16 in7.0 miCalmOvercast
4:55 PM50.0 °F48.2 °F94 %30.17 in10.0 miCalmOvercast
5:15 PM50.0 °F48.2 °F94 %30.17 in10.0 miCalmOvercast
5:35 PM50.0 °F48.2 °F94 %30.17 in10.0 miCalmOvercast
5:55 PM50.0 °F48.2 °F94 %30.17 in10.0 miCalmOvercast
6:15 PM50.0 °F48.2 °F94 %30.18 in10.0 miNorth (360°)3.5 mphOvercast
6:35 PM50.0 °F48.2 °F94 %30.18 in10.0 miCalmMostly Cloudy
6:55 PM50.0 °F48.2 °F94 %30.18 in10.0 miCalmOvercast
7:15 PM48.2 °F48.2 °F100 %30.19 in10.0 miCalmOvercast
7:35 PM48.2 °F48.2 °F100 %30.18 in7.0 miCalmOvercast
7:50 PM48.2 °F48.2 °F100 %30.19 in9.0 miCalmOvercast
8:15 PM48.2 °F48.2 °F100 %30.19 in2.5 miCalmOvercast
8:35 PM48.2 °F48.2 °F100 %30.19 in5.0 miCalmOvercast
8:55 PM48.2 °F48.2 °F100 %30.20 in6.0 miCalmOvercast
9:15 PM48.2 °F48.2 °F100 %30.20 in0.5 miCalmOvercast
9:35 PM48.2 °F48.2 °F100 %30.20 in0.2 miCalmOvercast
9:55 PM48.2 °F48.2 °F100 %30.20 in0.8 miCalmOvercast
10:15 PM48.2 °F48.2 °F100 %30.20 in0.2 miCalmOvercast
10:55 PM48.2 °F48.2 °F100 %30.20 in1.5 miCalmOvercast
11:15 PM48.2 °F48.2 °F100 %30.20 in1.5 miCalmOvercast
11:35 PM48.2 °F48.2 °F100 %30.21 in1.5 miCalmOvercast
11:55 PM48.2 °F48.2 °F100 %30.20 in0.2 miCalmOvercast
Hourly data recorded from KGOO, located miles away from Grass Valley, California







STORIES FROM OUR PARTNERS